www.pogodaiklimat.ru

Погода и климат >> Архив погоды >> Норвегия >> Мерокер


ПОГОДА в Мерокере

  • Прогноз погоды в Мерокере
  • Монитор погоды в Мерокере

АРХИВ ПОГОДЫ в Мерокере

Время (UTC), дата Ветер
(напр.,м/с)
 
Видим.   Явления Облачность Т
(С)
Тd
(С)
f
(%)
Тe
(С)
Тes
(С)
Комфортность P
(гПа)
Po
(гПа)
Тmin
(С)
Tmax
(С)
R
(мм)
R24
(мм)
S
(см)
10 12.07 С 2-5
{5}
н/о н/о +16.0 +10.1 68 +16 +16 1011.8 991.9
11 12.07 СЗ 3-5
{6}
н/о н/о +17.6 +9.0 57 +18 +18 1011.5 991.7
12 12.07 СЗ 4-7
{7}
н/о н/о +18.5 +8.8 53 +19 +19 1011.2 991.4
13 12.07 СЗ 5-8
{8}
н/о н/о +18.8 +9.3 54 +19 +19 1010.7 990.9
14 12.07 СЗ 6-9
{9}
н/о н/о +19.0 +8.4 50 +19 +19 1010.6 990.8
15 12.07 СЗ 5-9
{9}
н/о н/о +19.4 +8.4 49 +20 +20 1010.7 991.0
16 12.07 З 4-7
{9}
н/о н/о +19.8 +8.8 49 +21 +21 комфорт 1010.8 991.1
17 12.07 З 4-6
{7}
н/о н/о +19.6 +8.0 47 +20 +20 1011.0 991.3
18 12.07 СЗ 3-6
{9}
н/о н/о +19.0 +8.9 52 +20 +20 1011.2 991.5 +9.3 +20.0
19 12.07 СЗ 4-7
{7}
н/о н/о +16.7 +10.1 65 +16 +16 1011.7 991.8
20 12.07 СЗ 3-7
{7}
н/о н/о +14.8 +9.4 70 +14 +14 1012.3 992.3
21 12.07 С 3-5
{7}
н/о н/о +12.7 +8.8 77 +11 +11 1013.0 992.8
22 12.07 С 3-5
{6}
н/о н/о +11.5 +8.4 81 +10 +10 1013.6 993.3
23 12.07 СЗ 1-3
{6}
н/о н/о +10.7 +8.5 86 +10 +10 1014.2 993.8
00 13.07 ЮЗ 1-3
{7}
н/о н/о +10.0 +8.3 89 +9 +9 1014.3 993.9 0.2
01 13.07 Ю 1-2
{4}
н/о н/о +9.3 +7.8 90 +9 +9 1014.6 994.1
02 13.07 Ю 1-2
{2}
н/о н/о +9.5 +8.0 90 +9 +9 1014.7 994.2
03 13.07 З 1-2
{3}
н/о н/о +10.3 +8.4 88 +10 +10 1014.8 994.3
04 13.07 СЗ 2-3
{3}
н/о н/о +10.5 +8.1 85 +9 +9 1015.0 994.6
05 13.07 СВ 1-2
{3}
н/о н/о +10.8 +8.2 84 +10 +10 1015.1 994.7
06 13.07 Ю 1-1
{4}
н/о н/о +11.5 +8.5 82 +11 +11 1015.1 994.8 +9.3 +19.0 0.2
07 13.07 С 1-1
{2}
н/о н/о +12.2 +8.9 80 +12 +12 1015.2 994.9
08 13.07 СЗ 2-3
{4}
н/о н/о +12.8 +7.9 72 +12 +12 1015.5 995.2
09 13.07 СЗ 2-5
{5}
н/о н/о +13.4 +8.1 70 +13 +13 1015.4 995.2
10 13.07 СЗ 2-3
{5}
н/о н/о +13.9 +8.3 69 +13 +13 1015.4 995.3
11 13.07 СЗ 2-4
{5}
н/о н/о +14.3 +7.8 65 +14 +14 1015.5 995.4
12 13.07 СЗ 3-5
{6}
н/о н/о +14.8 +8.1 64 +14 +14 1015.4 995.3
13 13.07 З 3-6
{6}
н/о н/о +14.8 +8.5 66 +14 +14 1015.5 995.4
14 13.07 З 3-4
{5}
н/о н/о +14.9 +8.6 66 +14 +14 1015.6 995.5
15 13.07 З 3-5
{5}
н/о н/о +14.6 +8.6 67 +14 +14 1015.8 995.6
16 13.07 З 3-5
{5}
н/о н/о +16.0 +7.8 58 +16 +16 1015.7 995.6
17 13.07 З 2-4
{6}
н/о н/о +14.5 +7.8 64 +14 +14 1015.7 995.6
18 13.07 З 3-5
{6}
н/о н/о +15.2 +8.9 66 +15 +15 1015.9 995.8 +11.4 +16.4
19 13.07 СЗ 4-6
{6}
н/о н/о +13.6 +8.7 72 +12 +12 1016.5 996.3
20 13.07 СЗ 4-6
{6}
н/о н/о +12.7 +8.0 73 +11 +11 1016.9 996.6
21 13.07 СЗ 3-4
{7}
н/о н/о +11.7 +7.8 77 +10 +10 1017.5 997.1
22 13.07 СЗ 4-6
{7}
н/о н/о +11.2 +7.3 77 +9 +9 1017.6 997.2
23 13.07 СЗ 4-6
{7}
н/о н/о +10.7 +7.2 79 +8 +8 1017.8 997.3
00 14.07 СЗ 2-4
{7}
н/о н/о +10.1 +7.0 81 +9 +9 1018.1 997.6
01 14.07 СВ 2-3
{4}
н/о н/о +9.6 +6.7 82 +8 +8 1018.3 997.8
02 14.07 СЗ 3-5
{5}
н/о н/о +9.7 +6.1 78 +8 +8 1018.2 997.7
03 14.07 СЗ 2-5
{6}
н/о н/о +9.3 +6.0 80 +8 +8 1018.3 997.8
04 14.07 СЗ 2-3
{4}
н/о н/о +9.4 +6.1 80 +8 +8 1018.3 997.8
05 14.07 З 3-5
{6}
н/о н/о +9.7 +4.7 71 +8 +8 1018.2 997.7
06 14.07 З 2-3
{6}
н/о н/о +9.8 +5.2 73 +8 +8 1018.3 997.8 +9.3 +15.2
07 14.07 С 2-3
{4}
н/о н/о +9.5 +6.4 81 +8 +8 1018.6 998.1
08 14.07 З 2-5
{5}
н/о н/о +10.0 +6.2 77 +9 +9 1018.7 998.2
09 14.07 СЗ 3-5
{5}
н/о н/о +10.6 +6.4 75 +9 +9 1018.6 998.2
10 14.07 СЗ 2-4
{6}
н/о н/о +10.9 +6.9 76 +10 +10 1018.8 998.3
11 14.07 СЗ 3-6
{6}
н/о н/о +11.1 +6.7 74 +9 +9 1018.7 998.2
12 14.07 СЗ 2-3
{6}
н/о н/о +11.4 +6.9 74 +10 +10 1018.6 998.2
13 14.07 С 2-3
{5}
н/о н/о +11.5 +6.6 72 +10 +10 1018.6 998.2
14 14.07 С 3-5
{5}
н/о н/о +11.3 +6.5 72 +10 +10 1018.7 998.3
15 14.07 СЗ 3-5
{6}
н/о н/о +11.4 +6.6 72 +10 +10 1018.6 998.2
16 14.07 З 2-5
{6}
н/о н/о +11.8 +6.9 72 +11 +11 1018.5 998.1
17 14.07 СЗ 3-4
{5}
н/о н/о +11.3 +6.7 73 +10 +10 1017.9 997.5
18 14.07 СЗ 3-4
{6}
н/о н/о +11.1 +6.5 73 +9 +9 1018.1 997.7 +9.5 +12.1
19 14.07 СЗ 2-3
{4}
н/о н/о +10.1 +7.4 83 +9 +9 1018.0 997.5
20 14.07 СЗ 1-3
{4}
н/о н/о +9.6 +7.6 87 +9 +9 1017.9 997.4
21 14.07 С 1-2
{4}
н/о н/о +9.1 +7.2 88 +8 +8 1018.0 997.4
22 14.07 СВ 1-2
{2}
н/о н/о +8.9 +7.5 91 +8 +8 1017.6 997.0
23 14.07 СВ 1-2
{2}
н/о н/о +8.8 +7.4 91 +8 +8 1017.4 996.8
00 15.07 СЗ 2-4
{4}
н/о н/о +8.8 +7.1 89 +7 +7 1017.0 996.5
01 15.07 СВ 1-2
{4}
н/о н/о +8.6 +7.1 90 +8 +8 1016.8 996.2
02 15.07 С 2-3
{3}
н/о н/о +8.3 +7.4 94 +6 +6 1016.4 995.8
03 15.07 С 2-3
{5}
н/о н/о +8.0 +7.3 95 +6 +6 1016.2 995.6
04 15.07 СЗ 2-4
{5}
н/о н/о +8.1 +7.0 93 +6 +6 1016.1 995.5
05 15.07 С 2-4
{5}
н/о н/о +8.6 +7.2 91 +7 +7 1015.8 995.3
06 15.07 СЗ 2-4
{5}
н/о н/о +9.0 +7.3 89 +7 +7 1015.4 994.9 +7.9 +11.1 1
07 15.07 СЗ 2-3
{5}
н/о н/о +9.2 +7.2 87 +7 +7 1015.2 994.7
08 15.07 З 2-4
{4}
н/о н/о +9.0 +7.3 89 +7 +7 1015.2 994.7
09 15.07 СЗ 2-5
{5}
н/о н/о +9.6 +7.4 86 +8 +8 1015.1 994.6
10 15.07 З 3-5
{5}
н/о н/о +9.7 +8.0 89 +7 +7 1014.9 994.5
11 15.07 С 3-4
{4}
н/о н/о +10.3 +8.6 89 +8 +8 1014.5 994.1
12 15.07 СЗ 3-5
{6}
н/о н/о +10.6 +8.0 84 +9 +9 1014.4 994.0
13 15.07 СЗ 3-5
{6}
н/о н/о +11.6 +8.1 79 +10 +10 1014.0 993.7
14 15.07 СЗ 3-6
{6}
н/о н/о +11.9 +7.8 76 +10 +10 1013.6 993.3
15 15.07 З 3-6
{6}
н/о н/о +11.7 +8.0 78 +10 +10 1013.2 993.0
16 15.07 СЗ 4-6
{7}
н/о н/о +11.9 +8.0 77 +10 +10 1013.1 992.8
17 15.07 СЗ 1-3
{6}
н/о н/о +10.8 +8.7 87 +10 +10 1013.3 993.0
18 15.07 СЗ 3-5
{7}
н/о н/о +11.1 +7.6 79 +9 +9 1013.2 992.9 +8.9 +12.1
19 15.07 СЗ 3-5
{6}
н/о н/о +11.4 +6.8 73 +10 +10 1013.2 992.9
20 15.07 СЗ 2-5
{6}
н/о н/о +10.2 +6.0 75 +9 +9 1013.9 993.5
21 15.07 СЗ 3-5
{5}
н/о н/о +9.7 +6.1 78 +8 +8 1014.7 994.2
22 15.07 СЗ 3-5
{7}
н/о н/о +9.6 +5.8 77 +7 +7 1015.1 994.7
23 15.07 СЗ 2-4
{6}
н/о н/о +9.4 +6.1 80 +8 +8 1015.4 994.9
00 16.07 СЗ 2-5
{7}
н/о н/о +9.3 +6.2 81 +8 +8 1015.5 995.0
01 16.07 СЗ 3-5
{6}
н/о н/о +9.2 +6.3 82 +7 +7 1015.8 995.3
02 16.07 СЗ 2-3
{7}
н/о н/о +8.6 +6.7 88 +7 +7 1016.1 995.5
03 16.07 С 3-5
{5}
н/о н/о +8.7 +7.0 89 +6 +6 1016.0 995.5
04 16.07 СЗ 3-5
{6}
н/о н/о +9.1 +6.9 86 +7 +7 1016.2 995.7
05 16.07 СЗ 4-6
{6}
н/о н/о +9.6 +6.5 81 +7 +7 1016.3 995.8
06 16.07 СЗ 3-4
{7}
н/о н/о +9.7 +7.0 83 +7 +7 1016.7 996.2 +8.5 +12.1
07 16.07 С 2-3
{4}
н/о н/о +9.6 +7.7 88 +8 +8 1016.9 996.4
08 16.07 СЗ 2-4
{5}
н/о н/о +10.1 +7.2 82 +9 +9 1017.1 996.6
09 16.07 З 3-5
{5}
н/о н/о +11.0 +7.1 77 +9 +9 1016.9 996.5
10 16.07 СЗ 2-3
{5}
н/о н/о +12.1 +7.2 72 +11 +11 1016.8 996.5
11 16.07 З 3-5
{5}
н/о н/о +12.9 +7.6 70 +12 +12 1016.6 996.3
12 16.07 З 4-6
{6}
н/о н/о +14.8 +7.6 62 +14 +14 1016.1 996.0
13 16.07 СЗ 4-8
{8}
н/о н/о +15.2 +7.3 59 +14 +14 1015.9 995.9
14 16.07 СЗ 4-7
{8}
н/о н/о +15.4 +7.7 60 +15 +15 1015.9 995.8
15 16.07 СЗ 3-6
{8}
н/о н/о +16.5 +7.7 56 +16 +16 1015.4 995.4
16 16.07 З 4-7
{7}
н/о н/о +15.9 +7.2 56 +15 +15 1015.4 995.3
17 16.07 СЗ 4-7
{8}
н/о н/о +15.3 +7.4 59 +14 +14 1015.1 995.1
18 16.07 СЗ 4-6
{8}
н/о н/о +14.8 +7.4 61 +14 +14 1015.2 995.1 +9.5 +16.8
19 16.07 СЗ 2-4
{6}
н/о н/о +13.8 +8.0 68 +13 +13 1015.0 994.8
20 16.07 С 1-3
{5}
н/о н/о +12.6 +8.5 76 +13 +13 1015.0 994.8
21 16.07 Ю 2-2
{2}
н/о н/о +8.8 +7.3 90 +7 +7 1015.5 995.0
22 16.07 Ю 2-3
{3}
н/о н/о +8.4 +7.0 91 +6 +6 1015.7 995.1
23 16.07 Ю 2-2
{3}
н/о н/о +8.3 +6.9 91 +6 +6 1015.8 995.2
00 17.07 ЮВ 1-2
{6}
н/о н/о +7.2 +6.2 93 +6 +6 1015.7 995.0 0.2
01 17.07 Ю 1-2
{2}
н/о н/о +6.0 +5.1 94 +5 +5 1015.6 994.8
02 17.07 ЮВ 2-3
{3}
н/о н/о +5.0 +4.4 96 +2 +2 1015.3 994.5
03 17.07 ЮВ 1-2
{4}
н/о н/о +4.6 +4.0 96 +3 +3 1015.0 994.2
04 17.07 ЮВ 1-1
{2}
н/о н/о +5.0 +4.6 97 +4 +4 1014.7 993.9
05 17.07 штиль 0-1
{2}
н/о н/о +6.7 +5.8 94 +6 +6 1014.2 993.5
06 17.07 С 1-2
{4}
н/о н/о +9.5 +6.8 83 +9 +9 1013.6 993.2 +4.1 +14.9 0.2
07 17.07 СЗ 1-2
{2}
н/о н/о +12.4 +8.5 77 +12 +12 1012.9 992.6
08 17.07 СВ 1-2
{3}
н/о н/о +15.4 +10.0 70 +16 +16 1012.2 992.2
09 17.07 З 3-5
{6}
н/о н/о +16.1 +9.1 63 +16 +16 1012.0 992.0
10 17.07 СЗ 3-6
{6}
н/о н/о +17.2 +8.9 58 +17 +17 1011.8 991.9
11 17.07 СЗ 3-5
{7}
н/о н/о +18.6 +8.9 53 +19 +19 1011.5 991.7
12 17.07 С 3-5
{7}
н/о н/о +18.6 +8.6 52 +19 +19 1011.2 991.4
13 17.07 СЗ 2-4
{5}
н/о н/о +20.0 +8.7 48 +22 +22 комфорт 1010.7 991.1
14 17.07 СЗ 3-5
{6}
н/о н/о +20.2 +5.8 39 +21 +21 комфорт 1010.4 990.7
15 17.07 СЗ 3-5
{7}
н/о н/о +20.4 +6.4 40 +22 +22 комфорт 1010.1 990.5
16 17.07 З 4-5
{6}
н/о н/о +20.2 +6.9 42 +21 +21 комфорт 1010.0 990.3
17 17.07 З 3-5
{6}
н/о н/о +19.9 +7.3 44 +21 +21 комфорт 1009.9 990.3
18 17.07 СЗ 2-4
{7}
н/о н/о +18.2 +7.0 48 +19 +19 1010.1 990.3 +9.4 +20.7
19 17.07 С 1-2
{4}
н/о н/о +17.2 +7.6 53 +18 +18 1010.3 990.4
20 17.07 штиль 0-1
{2}
н/о н/о +15.1 +10.1 72 +15 +15 1010.4 990.4
21 17.07 Ю 1-2
{2}
н/о н/о +12.9 +8.6 75 +13 +13 1010.6 990.4
22 17.07 ЮВ 1-1
{3}
н/о н/о +12.3 +9.1 81 +12 +12 1010.9 990.7
23 17.07 штиль 0-1
{2}
н/о н/о +10.7 +8.5 86 +10 +10 1011.0 990.7
00 18.07 Ю 1-2
{4}
н/о н/о +10.9 +9.0 88 +11 +11 1011.1 990.8 0.2
01 18.07 ЮВ 1-1
{2}
н/о н/о +10.5 +9.1 91 +10 +10 1010.8 990.5
02 18.07 Ю 1-2
{2}
н/о н/о +10.6 +9.8 95 +10 +10 1010.7 990.4
03 18.07 ЮЗ 1-1
{2}
н/о н/о +10.5 +9.9 96 +10 +10 1010.4 990.1
04 18.07 штиль 0-1
{2}
н/о н/о +10.7 +10.1 96 +10 +10 1010.2 989.9
05 18.07 штиль 0-1
{2}
н/о н/о +11.5 +10.4 93 +11 +11 1009.9 989.6
06 18.07 С 1-1
{2}
н/о н/о +13.3 +10.8 85 +13 +13 1009.4 989.3 +10.4 +18.4 0.4
07 18.07 штиль 0-1
{1}
н/о н/о +17.8 +11.8 68 +18 +18 1008.7 988.9
08 18.07 штиль 0-1
{1}
н/о н/о +19.1 +11.4 61 +20 +20 1008.0 988.4
09 18.07 СВ 1-2
{2}
н/о н/о +22.3 +14.2 60 +26 +26 жарко 1007.4 987.9
10 18.07 Ю 3-5
{5}
н/о н/о +23.3 +11.4 47 +26 +26 жарко 1007.0 987.6
11 18.07 Ю 3-5
{5}
н/о н/о +23.4 +12.4 50 +26 +26 жарко 1006.7 987.3
12 18.07 Ю 4-6
{7}
н/о н/о +24.0 +11.4 45 +25 +25 комфорт 1006.2 986.9
13 18.07 Ю 4-8
{8}
н/о н/о +24.7 +10.6 41 +26 +26 жарко 1006.0 986.7
14 18.07 Ю 4-7
{9}
н/о н/о +25.6 +7.2 31 +26 +26 жарко 1005.7 986.5
15 18.07 Ю 5-7
{8}
н/о н/о +25.0 +6.2 30 +25 +25 комфорт 1005.5 986.2
16 18.07 Ю 4-7
{9}
н/о н/о +25.5 +7.2 31 +25 +25 комфорт 1005.3 986.0
17 18.07 Ю 6-9
{9}
н/о н/о +24.9 +8.0 34 +25 +25 комфорт 1005.4 986.1
18 18.07 Ю 5-8
{9}
н/о н/о +24.3 +10.2 41 +25 +25 комфорт 1005.4 986.1 +13.4 +26.0
19 18.07 ЮВ 4-9
{9}
н/о н/о +23.2 +9.9 43 +25 +25 комфорт 1005.6 986.2
20 18.07 ЮВ 2-4
{9}
н/о н/о +21.6 +10.1 48 +23 +23 комфорт 1006.6 987.1
21 18.07 ЮВ 4-7
{8}
н/о н/о +20.7 +9.3 48 +22 +22 комфорт 1007.2 987.6
22 18.07 ЮВ 2-4
{6}
н/о н/о +19.0 +9.2 53 +20 +20 1007.9 988.2
23 18.07 ЮВ 3-5
{5}
н/о н/о +18.4 +9.2 55 +19 +19 1008.2 988.4
00 19.07 Ю 2-4
{9}
н/о н/о +15.0 +9.6 70 +15 +15 1008.4 988.5
01 19.07 ЮВ 1-3
{3}
н/о н/о +13.8 +9.1 73 +14 +14 1008.5 988.5
02 19.07 Ю 2-3
{4}
н/о н/о +13.0 +9.1 77 +12 +12 1008.7 988.6
03 19.07 Ю 3-5
{5}
н/о н/о +13.5 +9.0 74 +12 +12 1008.6 988.5
04 19.07 ЮЗ 2-5
{5}
н/о н/о +14.8 +9.4 70 +15 +15 1008.6 988.6
05 19.07 ЮВ 3-6
{6}
н/о н/о +17.3 +9.2 59 +17 +17 1008.2 988.4
06 19.07 ЮВ 4-9
{9}
н/о н/о +18.3 +9.4 56 +18 +18 1008.4 988.7 +11.3 +24.2
07 19.07 Ю 5-8
{8}
н/о н/о +19.5 +9.7 53 +20 +20 1008.1 988.5
08 19.07 ЮВ 5-9
{10}
н/о н/о +20.6 +9.5 49 +22 +22 комфорт 1008.0 988.4
09 19.07 Ю 5-9
{12}
н/о н/о +22.3 +10.8 48 +24 +24 комфорт 1007.9 988.4

 

Местоположение метеостанции Мерокер (Норвегия): широта 63.41 долгота 11.73 высота над уровнем моря 169 м.

В архиве по умолчанию представлена погода в Мерокере за последнюю неделю. Архивные данные за месяц целиком и за предыдущие месяцы, начиная с января 2011 года, Вы можете получить, выбрав интересующий диапазон дат из раскрывающегося списка и нажав кнопку "Ввод!".


*Определитесь, кто Вы:
робот инопланетянин человек

Внимание! Время в таблицах - всемирное. Для получения местного времени необходимо прибавить поправку, которая равна 1 ч.

Смотрите также архив погоды в соседних городах и на ближайших метеорологических станциях:

Погода в Сторлиен аэропорту (Швеция) (24 км)
Погода в Блахамаррене (Швеция) (34 км)
Погода в Тронхейм аэропорту (Норвегия) (40 км)
Погода в Сельбу (Норвегия) (41 км)
Погода в Квитаммаре (Норвегия) (43 км)
Погода на Сыларне (Швеция) (49 км)
Погода во Фросте (Норвегия) (55 км)
Погода в Тронхейме (Норвегия) (64 км)
Погода в Стейнхьере (Норвегия) (69 км)
Погода в Бьорнанжене (Швеция) (71 км)

Пояснения к столбцам:

Ветер - указаны скорость ветра в м/с - средняя за 10 мин, порывы в срок и между сроками (в фигурных скобках) и направление, откуда дует ветер: С - северный, СВ - северо-восточный, В - восточный, ЮВ - юго-восточный, Ю - южный, ЮЗ - юго-западный, З - западный, СЗ - северо-западный.
Видимость - горизонтальная дальность видимости в метрах или километрах. При видимости от 1 до 10 км при отсутствии осадков обычно наблюдается дымка, при ухудшении видимости до 1 км и менее - туман. В сухую погоду видимость может ухудшаться дымом, пылью или мглою.
Явления - указаны атмосферные явления, наблюдавшиеся в срок или в последний час перед сроком; фигурными скобками обозначены явления, наблюдавшиеся между сроками (за 1-3 часа до срока); квадратными скобками обозначены град или гололедные отложения с указанием их диаметра в мм.
Облачность - указаны через наклонную черту общая и нижняя облачность в баллах и высота нижней границы облаков в метрах; квадратными скобками обозначены формы облаков: Ci - перистые, Cs - перисто-слоистые, Cc - перисто-кучевые, Ac - высококучевые, As - высокослоистые, Sc - слоисто-кучевые, Ns - слоисто-дождевые, Cu - кучевые, Cb - кучево-дождевые. Подробнее классификацию облаков см. в Атласе облаков (PDF).
T - Температура воздуха - температура, измеренная на высоте 2 м над землей.
Td - Температура точки росы - температура, при понижении до которой содержащийся в воздухе водяной пар достигнет насыщения.
f - Относительная влажность воздуха - влажноcть воздуха, измеренная на высоте 2 м над землей.
Te - Эффективная температура - температура, которую ощущает одетый по сезону человек в тени. Характеристика душности погоды. При расчете учитывается влияние влажности воздуха и скорости ветра на теплоощущения человека.
Tes - Эффективная температура на солнце - температура, которую ощущает человек, с поправкой на солнечный нагрев. Характеристика знойности погоды. Зависит от высоты солнца над горизонтом, облачности и скорости ветра. Ночью, в пасмурную погоду, а также при ветре 12 м/с и более поправка равна нулю.
P - Атмосферное давление - приведенное к уровню моря атмосферное давление.
Po - Атмосферное давление - измеренное на уровне метеостанции атмосферное давление.
Tmin - Минимальная температура - минимум температуры воздуха на высоте 2 м над землей.
Tmax - Максимальная температура - максимум температуры воздуха на высоте 2 м над землей.
R - Количество осадков - Количество выпавших осадков за период времени, мм. При наведении курсора мыши на число - период времени, за который выпало указанное количество осадков.
R24 - Количество осадков - Количество выпавших осадков за 24 часа, мм.
S - Снежный покров - Высота снежного покрова, см. При наведении курсора мыши на число - состояние снежного покрова и степень покрытия местности в баллах.